{"data":{"norad_id":58914,"intl_designator":"2024-023K","name":"GEESAT-2 10","alt_names":[],"object_type":"PAYLOAD","status":"ACTIVE","operator":null,"country":"PRC","launch_date":"2024-02-02","launch_site_code":"XICLF","launch_vehicle":null,"mission":null,"orbit_class":"UNKNOWN","rcs_meters":null,"size_class":null,"mass_kg":null,"dimensions":null,"purposes":[],"wikipedia_slug":null,"has_3d_model":false,"image_url":null,"decayed_at":null,"tle_current":{"epoch":"2026-05-25T03:50:44.890656Z","epoch_age_seconds":65224,"freshness":"FRESH","line1":"1 58914U 24023K   26145.16024179  .00000931  00000+0  14042-3 0  9992","line2":"2 58914  49.9941 100.6304 0010080 271.0368  88.9415 14.83151443125495","mean_motion":14.83151443,"eccentricity":0.001008,"inclination_deg":49.9941,"raan_deg":100.6304,"arg_perigee_deg":271.0368,"mean_anomaly_deg":88.9415,"bstar":0.00014042,"rev_number":12549,"period_min":97.090557191333,"perigee_km":612.34066753935,"apogee_km":626.44769039614,"semimajor_km":6997.5311789677,"source":"CELESTRAK","updated_at":"2026-05-25T13:38:01.077015Z"}}}